Location: Camden Lake
(44.4269°N, 76.8469°W)
Time: 20:24:57
(UTC-04:00)

Daily predictions for brighter satellites

Satellite Brightness Start Highest point End
(mag) Time Altitude Azimuth Time Altitude Azimuth Time Altitude Azimuth
Cosmos 2297 Rocket 2.3 20:07:05 10° NNW 20:12:48 89° WSW 20:18:28 10° SSE
Meteor 2-15 Rocket 4.5 20:07:23 10° N 20:13:30 86° E 20:19:33 10° S
Cosmos 2208 Rocket 4.4 20:09:36 10° SSW 20:14:56 75° WNW 20:20:24 10° NNE
Cosmos 2082 4.1 20:09:58 10° NNW 20:15:34 67° WSW 20:21:07 10° SSE
Cosmos 1821 Rocket 4.3 20:09:36 10° SSW 20:15:41 76° W 20:21:48 10° N
FengYun 1-2 T 4.3 20:11:10 10° SSE 20:16:47 85° ENE 20:22:25 10° NNW
Cosmos 1605 Rocket 4.0 20:12:45 10° S 20:19:01 69° E 20:25:13 10° NNE
Cosmos 2298 Rocket 4.1 20:14:40 10° NNW 20:20:00 64° ENE 20:25:15 10° SSE
Cosmos 1626 Rocket 3.6 20:15:57 10° N 20:20:20 60° E 20:24:37 10° SSE
BREEZE-M DEB (TANK) 3.7 20:17:30 10° WNW 20:20:21 50° NNE 20:27:57 10° E
H-2A R/B 4.1 20:19:07 10° E 20:20:34 12° ENE 20:22:02 10° NE
Cosmos 220 Rocket 4.0 20:17:41 10° NNW 20:21:56 85° WSW 20:26:09 10° SSE
USA 186 1.9 20:23:07 10° SE 20:25:55 40° ENE 20:28:32 10° N
Cosmos 1455 Rocket 3.4 20:22:16 10° SSW 20:26:35 69° W 20:30:58 10° N
ALOS 2.3 20:22:25 10° SSE 20:27:05 75° ENE 20:31:46 10° N
Cosmos 1515 3.8 20:25:15 10° N 20:29:02 53° E 20:32:47 10° SSE
Cosmos 1602 Rocket 3.5 20:26:33 10° N 20:31:02 79° E 20:35:26 10° SSE
CZ-4 DEB 4.1 20:30:35 11° ESE 20:32:51 22° ENE 20:35:22 10° NNE
ERS-1 Rocket 3.8 20:29:12 10° SE 20:33:40 33° ENE 20:38:07 10° N
Cosmos 1346 Rocket 4.5 20:32:25 10° NNW 20:36:06 37° W 20:39:47 10° SSW
Helios 1B rocket 3.7 20:32:16 10° N 20:36:13 46° WNW 20:40:09 10° SW
Meteor 1-12 Rocket 4.3 20:30:59 10° S 20:36:45 82° E 20:42:40 10° NNE
Cosmos 2150 Rocket 4.0 20:39:45 10° NNW 20:44:57 90° NE 20:50:08 10° SSE
Cosmos 1763 Rocket 4.1 20:40:59 10° SSE 20:45:27 32° E 20:49:56 10° NE
Cosmos 2061 Rocket 4.3 20:41:05 10° SSE 20:47:00 45° E 20:52:54 10° NNE
Cosmos 1697 Rocket 2.6 20:42:08 10° SSW 20:47:44 72° ESE 20:53:22 10° NNE
Tiangong 1 2.0 20:44:54 10° W 20:47:48 35° SSW 20:49:40 18° SE
Cosmos 1939 Rocket 3.7 20:47:20 15° SE 20:50:13 33° ENE 20:53:59 10° N
Cosmos 1743 3.3 20:46:51 10° SSE 20:50:27 37° E 20:54:06 10° NNE
Cosmos 1066 Rocket 4.2 20:47:42 10° N 20:53:26 79° ENE 20:59:15 10° SSE
Cosmos 1459 Rocket 4.1 20:48:18 10° SSE 20:54:08 52° E 21:00:04 10° NNE
Cosmos 1898 Rocket 3.8 20:49:57 10° NNW 20:55:15 71° WSW 21:00:27 10° S
Cosmos 1125 Rocket 4.4 20:56:39 10° N 21:01:18 31° ENE 21:03:59 20° ESE
SL-16 R/B 3.3 21:00:04 18° SE 21:02:03 21° E 21:06:13 10° NE
Cosmos 1606 Rocket 3.9 21:01:23 10° SSE 21:05:27 42° E 21:09:40 10° NNE
Cosmos 2058 Rocket 4.0 21:03:44 21° SE 21:05:29 28° E 21:09:20 10° NNE
Cosmos 468 Rocket 4.0 21:01:09 10° SSW 21:06:16 81° WNW 21:11:27 10° NNE
BREEZE-M DEB (TANK) 4.1 20:51:28 10° SW 21:08:07 63° SSE 21:12:09 16° E
Cosmos 2098 Rocket 4.4 21:02:57 10° SSE 21:08:56 36° E 21:13:54 10° NNE
ASTEX 1 4.2 21:06:04 10° NNE 21:10:30 31° E 21:12:21 24° SE
Cosmos 841 Rocket 3.7 21:05:37 10° S 21:10:37 48° ESE 21:15:37 10° NNE
Cosmos 1980 Rocket 2.1 21:06:34 10° SSW 21:12:11 69° ESE 21:17:53 10° NNE
RESURS DK-1 3.2 21:10:44 10° NW 21:14:45 49° WSW 21:18:10 13° S
Resurs 01 Rocket 4.5 21:15:08 10° SW 21:17:51 16° W 21:20:35 10° NW
H-2A R/B 4.5 21:15:38 10° SSW 21:19:10 33° W 21:22:47 10° NNW
Cosmos 1814 Rocket 4.3 21:14:53 10° SSW 21:20:12 74° WNW 21:25:32 10° NNE
Cosmos 1842 3.5 21:23:10 10° N 21:27:00 49° ENE 21:27:48 41° ESE
Cosmos 1726 Rocket 3.5 21:24:43 20° S 21:27:39 62° E 21:32:02 10° NNE
Cosmos 1666 2.8 21:29:44 45° ESE 21:30:16 49° E 21:33:57 10° NNE
YAOGAN 6 3.4 21:30:59 35° ENE 21:31:05 35° ENE 21:34:31 10° N
Cosmos 2263 Rocket 3.0 21:29:46 10° N 21:34:50 34° NE 21:36:35 28° E
SL-08 R/B 4.4 21:29:48 11° S 21:35:47 66° E 21:41:53 10° NNE
Lacrosse 5 3.4 21:34:37 10° WNW 21:38:55 28° SW 21:41:56 16° S
Cosmos 1802 Rocket 4.1 21:34:14 10° S 21:40:40 82° W 21:47:09 10° N
Cosmos 1825 Rocket 4.2 21:36:48 10° NNW 21:41:08 55° W 21:44:12 18° SSW
Cosmos 2016 Rocket 3.9 21:39:16 10° S 21:45:24 89° W 21:51:40 10° N
Cosmos 1340 3.5 21:42:01 10° NNW 21:45:40 47° W 21:47:32 25° SSW
Cosmos 2322 Rocket 2.2 21:43:34 22° S 21:46:59 52° ESE 21:52:27 10° NE
SPOT 5 2.8 21:47:47 42° SSE 21:49:25 77° ENE 21:54:09 10° N
SWAS 4.3 21:47:47 10° SSW 21:52:06 88° ESE 21:56:28 10° NNE
Envisat 3.3 21:49:39 24° S 21:52:41 63° W 21:57:44 10° NNW
Cosmos 1953 Rocket 4.1 21:49:04 10° NNW 21:53:26 56° W 21:55:42 27° SSW
MetOp-A 4.0 21:52:04 41° SSE 21:53:59 78° ENE 21:59:22 10° NNW
Cosmos 2228 2.9 21:55:49 66° E 21:55:53 66° E 22:00:08 10° NNE
H-2A R/B 2.0 21:55:01 51° S 21:55:58 75° WSW 22:00:09 10° NNW
Nimbus 7 Rocket 4.3 21:50:04 10° NNE 21:56:11 79° ESE 22:01:08 16° S
CZ-4B R/B 4.4 21:55:08 10° NNE 21:58:08 29° ENE 21:58:08 29° ENE
Meteor 2-9 Rocket 4.0 21:57:29 23° S 22:00:59 89° ESE 22:06:24 10° N
Meteor 2-5 Rocket 4.2 21:56:16 10° N 22:01:53 43° ENE 22:02:35 41° E
Cosmos 1375 Rocket 4.4 21:55:52 10° SSW 22:02:23 70° ESE 22:08:58 10° NE
Terra 3.2 22:03:43 24° ENE 22:03:43 24° ENE 22:07:08 10° NNE
Meteor 1-15 Rocket 4.2 22:02:11 26° S 22:05:40 86° ESE 22:11:34 10° NNE
Genesis I 4.3 22:04:01 10° NNW 22:07:16 35° NNE 22:07:16 35° NNE
USA 245 4.4 22:06:08 45° SSE 22:08:12 77° ENE 22:14:27 10° N
ERS-1 Rocket 4.5 22:08:47 14° SSW 22:12:24 32° W 22:16:54 10° NNW
Cosmos 1864 Rocket 4.4 22:10:22 24° SSW 22:14:12 81° W 22:20:22 10° N
Cosmos 405 Rocket 3.5 22:13:09 10° N 22:15:52 45° N 22:15:52 45° N
BREEZE-M DEB (TANK) 3.3 22:15:41 10° WNW 22:17:25 36° WSW 22:17:25 36° WSW
Cosmos 2346 Rocket 4.4 22:12:30 10° N 22:18:41 64° E 22:19:34 57° ESE
deb Chang Zheng 4 4.5 22:20:30 10° N 22:24:48 48° WNW 22:26:46 28° SW
H-2A R/B 2.5 22:25:29 44° NE 22:25:29 44° NE 22:29:40 10° N
BREEZE-M DEB (TANK) 4.0 22:12:49 10° SW 22:25:08 65° SSE 22:25:52 59° ESE
Meteor 2-17 Rocket 4.3 22:24:21 55° S 22:25:48 84° E 22:31:53 10° N
Tsikada Rocket 4.4 22:21:19 10° NNW 22:27:39 62° W 22:30:24 34° SSW
Cosmos 2278 Rocket 4.3 22:25:31 10° N 22:28:19 14° NE 22:29:36 13° NE
GP-B 4.4 22:26:08 10° NNE 22:28:42 30° NE 22:28:42 30° NE
SL-08 RB Rocket 3.8 22:32:11 72° N 22:32:11 72° N 22:36:22 10° NNW
Cosmos 783 Rocket 4.4 22:31:33 78° SSW 22:31:55 88° WNW 22:37:14 10° NNE
USA 215 3.6 22:37:04 43° ENE 22:38:55 56° NNE 22:45:17 10° NW
ARGOS 3.2 22:39:04 67° SW 22:39:29 71° WSW 22:44:54 10° NNW
SPOT 1/Viking Rocket 3.9 22:44:10 57° WSW 22:44:30 58° W 22:49:40 10° NNW
NOAA 11 4.4 22:44:17 60° SW 22:44:47 63° W 22:50:13 10° NNW
SL-16 R/B 2.6 22:41:42 20° SW 22:45:39 60° WNW 22:51:17 10° NNE
Cosmos 1844 Rocket 3.9 22:40:57 10° N 22:45:36 29° NE 22:45:36 29° NE
Cosmos 2360 Rocket 3.0 22:58:32 41° NE 22:58:32 41° NE 23:02:10 10° NNE
Cosmos 540 Rocket 4.2 22:55:48 45° W 22:56:42 51° WNW 23:01:43 10° NNE
Cosmos 1072 Rocket 4.5 23:08:05 75° NNE 23:08:05 75° NNE 23:13:44 10° N
Cosmos 2263 Rocket 3.2 23:13:40 10° NW 23:18:16 38° W 23:18:16 38° W
Cosmos 2322 Rocket 4.0 23:26:36 10° WSW 23:31:20 27° NW 23:36:06 10° N
Cosmos 2034 Rocket 4.3 23:38:04 60° N 23:38:04 60° N 23:43:04 10° N
Cosmos 2322 4.5 23:40:42 49° NNW 23:40:42 49° NNW 23:45:10 10° NNE
Terra 3.5 23:42:36 29° NW 23:42:36 29° NW 23:45:21 10° NNW
Cosmos 2333 Rocket 4.4 23:51:29 16° NE 23:51:29 16° NE 23:52:47 10° NE
ATLAS 3B R/B 4.3 23:52:25 25° ENE 23:52:25 25° ENE 23:55:37 10° NE
